Location: Mexico
(19.4000°N, 99.1500°W)
Time: 09:42:13
(UTC-06:00)

ISS - Pass Details

Date: 20 January 2018
Orbit: 402 x 407 km, 51.6° (Epoch: 23 January)

Event Time Altitude Azimuth Distance (km) Brightness Sun altitude
Rises 19:55:07 0° 225° (SW) 2,297 1.0 -21.7°
Reaches altitude 10° 19:57:12 10° 230° (SW) 1,441 -0.2 -22.2°
Enters shadow 19:59:50 47° 267° (W) 533 -2.9 -22.8°
